TimeEDT,TemperatureF,Dew PointF,Humidity,Sea Level PressureIn,VisibilityMPH,Wind Direction,Wind SpeedMPH,Gust SpeedMPH,PrecipitationIn,Events,Conditions,WindDirDegrees,DateUTC
12:53 AM,69.1,63.0,81,29.96,10.0,South,11.5,-,0.00,,Clear,170,2013-06-25 04:53:00
1:53 AM,69.1,63.0,81,29.99,10.0,South,5.8,-,N/A,,Clear,190,2013-06-25 05:53:00
2:53 AM,69.1,63.0,81,29.99,10.0,SSW,6.9,-,N/A,,Clear,210,2013-06-25 06:53:00
3:53 AM,71.1,64.0,78,29.98,10.0,SSW,6.9,-,N/A,,Clear,210,2013-06-25 07:53:00
4:53 AM,72.0,64.9,78,29.99,9.0,SSW,10.4,-,N/A,,Clear,210,2013-06-25 08:53:00
5:53 AM,71.1,66.0,84,30.01,7.0,SW,9.2,-,N/A,,Clear,220,2013-06-25 09:53:00
6:53 AM,71.1,66.0,84,30.01,5.0,SW,6.9,-,N/A,,Haze,220,2013-06-25 10:53:00
7:53 AM,73.0,66.0,79,30.01,7.0,SSW,6.9,-,N/A,,Clear,210,2013-06-25 11:53:00
8:53 AM,77.0,66.9,71,30.01,9.0,SW,6.9,-,N/A,,Partly Cloudy,220,2013-06-25 12:53:00
9:53 AM,80.1,68.0,67,30.00,10.0,WSW,10.4,18.4,N/A,,Mostly Cloudy,240,2013-06-25 13:53:00
10:53 AM,84.9,69.1,59,29.99,10.0,WSW,11.5,-,N/A,,Clear,240,2013-06-25 14:53:00
11:53 AM,88.0,70.0,55,29.98,10.0,WSW,15.0,19.6,N/A,,Mostly Cloudy,240,2013-06-25 15:53:00
12:53 PM,90.0,69.1,50,29.96,10.0,WSW,19.6,28.8,N/A,,Clear,250,2013-06-25 16:53:00
1:53 PM,91.0,66.9,45,29.95,10.0,SW,20.7,28.8,N/A,,Partly Cloudy,230,2013-06-25 17:53:00
2:35 PM,91.4,68.0,46,29.96,10.0,SW,13.8,24.2,N/A,Thunderstorm,Partly Cloudy,230,2013-06-25 18:35:00
2:53 PM,86.0,68.0,55,29.93,10.0,WNW,9.2,28.8,N/A,Thunderstorm,Thunderstorm,300,2013-06-25 18:53:00
3:10 PM,78.8,66.2,65,29.97,2.5,SSW,8.1,20.7,0.05,Rain-Thunderstorm,Light Thunderstorms and Rain,200,2013-06-25 19:10:00
3:18 PM,82.4,69.8,66,29.97,10.0,SSW,16.1,29.9,0.05,Rain-Thunderstorm,Light Thunderstorms and Rain,200,2013-06-25 19:18:00
3:53 PM,79.0,68.0,69,29.93,10.0,South,8.1,-,0.05,Thunderstorm,Partly Cloudy,190,2013-06-25 19:53:00
4:10 PM,80.6,68.0,65,29.94,10.0,SSW,5.8,-,N/A,,Clear,200,2013-06-25 20:10:00
4:53 PM,89.1,72.0,57,29.89,10.0,WSW,13.8,-,N/A,,Clear,240,2013-06-25 20:53:00
5:53 PM,90.0,68.0,48,29.86,10.0,WSW,16.1,23.0,N/A,,Clear,250,2013-06-25 21:53:00
6:53 PM,89.1,66.9,48,29.84,10.0,WSW,16.1,-,N/A,,Clear,240,2013-06-25 22:53:00
7:53 PM,87.1,66.9,51,29.86,10.0,WSW,10.4,-,N/A,,Clear,240,2013-06-25 23:53:00
8:53 PM,84.0,66.9,56,29.85,10.0,SSW,9.2,-,N/A,,Clear,210,2013-06-26 00:53:00
9:53 PM,82.9,68.0,60,29.86,10.0,SSW,8.1,-,N/A,,Scattered Clouds,210,2013-06-26 01:53:00
10:53 PM,82.0,68.0,62,29.87,10.0,SSW,8.1,-,N/A,,Clear,210,2013-06-26 02:53:00
11:53 PM,73.9,62.1,66,29.91,10.0,North,10.4,16.1,N/A,,Overcast,360,2013-06-26 03:53:00